Content
SEND FEEDBACK

Daily
Averages
Monthly
Summary
United States of America

UPI, GUAM


Home > North America > United States > Guam
Elevation: 53 feet     Latitude: 13 34N     Longitude: 144 55E

WEATHER
 
SELECT A DAY
Number of Records: 209,106;   Date Range: 1/1/95 - 8/12/14
 
SHARE

PRINT THIS DATA

[ ← Previous Day ]
WEATHER ALMANAC - OCTOBER 15, 2013
[ Next Day → ]
[ °C ]   °F
Weather ElementAverageHighLow
Temperature80.8 °F86 °F (11:54 am)75.2 °F (5:07 pm)
Dewpoint77.3 °F80.1 °F (7:54 am)73.4 °F (5:34 pm)
Humidity89.2 %100 % (5:07 pm)77 % (11:54 am)
Barometer29.84 in29.91 in (9:02 am)29.79 in (11:54 pm)
Wind Speed9 mph17.3 mph (11:54 pm)
Wind Gust23 mph (11:54 pm)
Weather ElementAverage
Visibility8.1 mi
Wind DirectionWSW (248.3 °)

Weather ElementTotal
Precipitation3.08 in
Cooling Degree Days15.6 (Base 65)
Growing Degree Days30.6 (Base 50)
Averaged from 40 records on October 15, 2013
WEATHER CONDITIONS BREAKOUT
WIND DIRECTION BREAKOUT
WEATHER BY HOUR - OCTOBER 15, 2013
[ °C ]   °F
Local TimeTemperatureDewpointHumidityBarometerVisibilityWind DirectionWind SpeedGust SpeedPrecipitationEventsConditions
1:54 AM78.1 °F75.9 °F93 %29.86 in10.0 miCalmClear
2:54 AM79.0 °F75.9 °F90 %29.84 in10.0 miCalmClear
3:54 AM79.0 °F75.9 °F90 %29.84 in10.0 miCalmClear
4:54 AM78.1 °F75.9 °F93 %29.84 in10.0 miCalmClear
5:54 AM77.0 °F75.9 °F96 %29.84 in10.0 miCalmClear
6:54 AM80.1 °F78.1 °F94 %29.86 in7.0 miNorth (10°)3.5 mphClear
7:54 AM82.9 °F80.1 °F91 %29.87 in6.0 miNW (320°)4.6 mphClear
8:54 AM84.0 °F78.1 °F82 %29.89 in10.0 miNW (320°)9.2 mphScattered Clouds
9:02 AM84.2 °F78.8 °F84 %29.91 in10.0 miNW (320°)6.9 mphMostly Cloudy
9:20 AM84.2 °F78.8 °F84 %29.91 in10.0 miNW (310°)9.2 mphScattered Clouds
9:54 AM84.0 °F77.0 °F79 %29.88 in10.0 miNW (310°)10.4 mphScattered Clouds
10:54 AM84.0 °F77.0 °F79 %29.87 in10.0 miNW (310°)8.1 mphScattered Clouds
11:54 AM86.0 °F78.1 °F77 %29.84 in10.0 miWNW (290°)9.2 mphScattered Clouds
12:54 PM84.9 °F77.0 °F77 %29.81 in10.0 miWNW (300°)11.5 mphScattered Clouds
1:54 PM84.9 °F78.1 °F80 %29.80 in10.0 miWNW (290°)12.7 mphScattered Clouds
2:54 PM86.0 °F78.1 °F77 %29.80 in10.0 miNW (310°)12.7 mphScattered Clouds
3:49 PM82.4 °F78.8 °F89 %29.83 in10.0 miNW (310°)11.5 mph0.00 inRainLight Rain
3:54 PM82.9 °F78.1 °F85 %29.81 in7.0 miNW (320°)10.4 mph0.00 inRainLight Rain
4:24 PM80.6 °F77.0 °F89 %29.84 in1.8 miNorth (350°)15.0 mph20.7 mph0.02 inRainRain
4:32 PM78.8 °F77.0 °F94 %29.84 in3.0 miNorth (10°)9.2 mph0.12 inRainRain
4:40 PM78.8 °F77.0 °F94 %29.84 in5.0 miNorth (10°)6.9 mph0.14 inRainRain
4:46 PM78.8 °F77.0 °F94 %29.84 in5.0 miNNE (20°)10.4 mph0.17 inRainRain
4:54 PM78.1 °F77.0 °F96 %29.83 in2.0 miNorth (360°)12.7 mph17.3 mph0.29 inRainHeavy Rain
4:56 PM77.0 °F75.2 °F94 %29.85 in0.8 miNorth (360°)10.4 mph17.3 mph0.05 inRainHeavy Rain
4:58 PM77.0 °F75.2 °F94 %29.85 in3.0 miNorth (360°)11.5 mph17.3 mph0.14 inRainHeavy Rain
5:07 PM75.2 °F75.2 °F100 %29.85 in1.5 miNNW (340°)6.9 mph0.42 inRainHeavy Rain
5:15 PM75.2 °F75.2 °F100 %29.84 in3.0 miNNW (330°)9.2 mph0.53 inRainHeavy Rain
5:34 PM78.8 °F73.4 °F83 %29.84 in10.0 miNNW (330°)3.5 mph0.60 inMostly Cloudy
5:54 PM78.1 °F75.9 °F93 %29.83 in10.0 miNNW (330°)8.1 mph0.60 inScattered Clouds
6:54 PM80.1 °F78.1 °F94 %29.80 in10.0 miNW (310°)9.2 mphPartly Cloudy
7:10 PM78.8 °F78.8 °F100 %29.82 in10.0 miNW (310°)9.2 mphScattered Clouds
7:54 PM80.1 °F77.0 °F90 %29.80 in10.0 miWNW (300°)9.2 mphClear
8:54 PM81.0 °F78.1 °F91 %29.82 in10.0 miNW (310°)10.4 mphClear
9:54 PM81.0 °F79.0 °F94 %29.82 in10.0 miNW (320°)11.5 mphMostly Cloudy
10:13 PM80.6 °F78.8 °F94 %29.84 in10.0 miWNW (300°)12.7 mphMostly Cloudy
10:25 PM82.4 °F78.8 °F89 %29.83 in10.0 miNW (310°)13.8 mphMostly Cloudy
10:54 PM82.0 °F78.1 °F88 %29.81 in10.0 miNW (310°)12.7 mphScattered Clouds
11:05 PM82.4 °F78.8 °F89 %29.83 in10.0 miNW (310°)13.8 mphMostly Cloudy
11:20 PM82.4 °F77.0 °F84 %29.83 in10.0 miNW (320°)16.1 mphScattered Clouds
11:54 PM82.0 °F77.0 °F85 %29.79 in10.0 miNW (310°)17.3 mph23.0 mphScattered Clouds
Hourly data recorded from PGUM, located miles away from Upi, Guam







STORIES FROM OUR PARTNERS